SKYSAT-C6

Last updated on Fri Jul 11 2025 00:02:28 GMT+0000 (Coordinated Universal Time)

1 42992U 17068F 25191.64033379 .00005167 00000+0 18210-3 0 9994 2 42992 97.4145 323.0851 0002275 169.4510 190.6778 15.29727070430030
UTC large
Height (km)
Speed (km/s)
/
Latitude / Longitude
Inclination (degrees)
Orbital Period (minutes)
Azimuth
Elevation
Range (km)
Doppler Factor

Next 0 passes for location: London (51.5072 / 0.1276)

Sorry there are no passes over London.